SB KEPS @ AMSAT $ORB12208.O Orbital Elements 12208.OSCAR
HR AMSAT ORBITAL ELEMENTS FOR OSCAR SATELLITES FROM WA5QGD FORT WORTH,TX July 26, 2012 Send SUBSCRIBE KEPS/UNSUBSCRIBE KEPS to majordomo@amsat.org only BID: ORB12208.O TO ALL RADIO AMATEURS BT
Satellite: AO-07 Catalog number: 07530 Epoch time: 12208.64905719 Element set: 440 Inclination: 101.4042 deg RA of node: 204.3389 deg Eccentricity: 0.0011626 Arg of perigee: 204.3548 deg Mean anomaly: 155.6967 deg Mean motion: 12.53590375 rev/day Decay rate: -2.7e-07 rev/day^2 Epoch rev: 72499 Checksum: 298
Satellite: FO-29 Catalog number: 24278 Epoch time: 12207.93428118 Element set: 0902 Inclination: 098.5864 deg RA of node: 303.5224 deg Eccentricity: 0.0349825 Arg of perigee: 289.1213 deg Mean anomaly: 067.2359 deg Mean motion: 13.52985853 rev/day Decay rate: 6.0e-07 rev/day^2 Epoch rev: 78719 Checksum: 339
Satellite: SO-33 Catalog number: 25509 Epoch time: 12207.76802549 Element set: 284 Inclination: 031.4319 deg RA of node: 115.3576 deg Eccentricity: 0.0352673 Arg of perigee: 181.0273 deg Mean anomaly: 178.9645 deg Mean motion: 14.28793799 rev/day Decay rate: 3.42e-06 rev/day^2 Epoch rev: 71817 Checksum: 333
Satellite: RS-22 Catalog number: 27939 Epoch time: 12208.77368794 Element set: 573 Inclination: 097.8099 deg RA of node: 047.5547 deg Eccentricity: 0.0014170 Arg of perigee: 136.2963 deg Mean anomaly: 223.9364 deg Mean motion: 14.64074380 rev/day Decay rate: 1.86e-06 rev/day^2 Epoch rev: 47167 Checksum: 346
Satellite: VO-52 Catalog number: 28650 Epoch time: 12208.86290994 Element set: 164 Inclination: 097.5956 deg RA of node: 237.8758 deg Eccentricity: 0.0025011 Arg of perigee: 271.0037 deg Mean anomaly: 088.8323 deg Mean motion: 14.83062410 rev/day Decay rate: 8.12e-06 rev/day^2 Epoch rev: 39085 Checksum: 316
Satellite: HO-68 Catalog number: 36122 Epoch time: 12208.73929346 Element set: 681 Inclination: 100.3584 deg RA of node: 267.2836 deg Eccentricity: 0.0007665 Arg of perigee: 021.6889 deg Mean anomaly: 338.4551 deg Mean motion: 13.16296980 rev/day Decay rate: -4.4e-07 rev/day^2 Epoch rev: 12559 Checksum: 328
/EX SB KEPS @ AMSAT $ORB12208.D Orbital Elements 12208.MICROS
HR AMSAT ORBITAL ELEMENTS FOR THE MICROSATS FROM WA5QGD FORT WORTH,TX July 26, 2012 Send SUBSCRIBE KEPS/UNSUBSCRIBE KEPS to majordomo@amsat.org only BID: ORB12208.D TO ALL RADIO AMATEURS BT
Satellite: UO-11 Catalog number: 14781 Epoch time: 12207.98312660 Element set: 0943 Inclination: 097.9491 deg RA of node: 267.1594 deg Eccentricity: 0.0007803 Arg of perigee: 267.7814 deg Mean anomaly: 092.2496 deg Mean motion: 14.80497846 rev/day Decay rate: -2.31e-06 rev/day^2 Epoch rev: 52567 Checksum: 337
Satellite: AO-16 Catalog number: 20439 Epoch time: 12207.79511478 Element set: 0526 Inclination: 098.4329 deg RA of node: 150.0920 deg Eccentricity: 0.0011853 Arg of perigee: 047.0500 deg Mean anomaly: 313.1680 deg Mean motion: 14.32067927 rev/day Decay rate: 3.8e-07 rev/day^2 Epoch rev: 17552 Checksum: 283
Satellite: LO-19 Catalog number: 20442 Epoch time: 12207.95197956 Element set: 0461 Inclination: 098.3975 deg RA of node: 153.1152 deg Eccentricity: 0.0012593 Arg of perigee: 038.8336 deg Mean anomaly: 321.3748 deg Mean motion: 14.32285518 rev/day Decay rate: 3.7e-07 rev/day^2 Epoch rev: 17573 Checksum: 317
Satellite: AO-27 Catalog number: 22825 Epoch time: 12207.81370935 Element set: 0166 Inclination: 098.5759 deg RA of node: 150.0302 deg Eccentricity: 0.0008479 Arg of perigee: 160.6981 deg Mean anomaly: 199.4526 deg Mean motion: 14.29472878 rev/day Decay rate: 9.1e-07 rev/day^2 Epoch rev: 98199 Checksum: 347
Satellite: IO-26 Catalog number: 22826 Epoch time: 12208.85691627 Element set: 910 Inclination: 098.5701 deg RA of node: 151.4185 deg Eccentricity: 0.0009149 Arg of perigee: 151.8815 deg Mean anomaly: 208.2861 deg Mean motion: 14.29747471 rev/day Decay rate: 1.7e-07 rev/day^2 Epoch rev: 98227 Checksum: 322
Satellite: GO-32 Catalog number: 25397 Epoch time: 12208.90635511 Element set: 833 Inclination: 098.3666 deg RA of node: 185.6666 deg Eccentricity: 0.0001547 Arg of perigee: 127.8935 deg Mean anomaly: 232.2413 deg Mean motion: 14.23284457 rev/day Decay rate: 9.3e-07 rev/day^2 Epoch rev: 72967 Checksum: 327
Satellite: NO-44 Catalog number: 26931 Epoch time: 12208.56293845 Element set: 97 Inclination: 067.0521 deg RA of node: 018.8554 deg Eccentricity: 0.0007298 Arg of perigee: 256.9331 deg Mean anomaly: 103.0990 deg Mean motion: 14.29814223 rev/day Decay rate: -1.0e-07 rev/day^2 Epoch rev: 56487 Checksum: 308
Satellite: SO-50 Catalog number: 27607 Epoch time: 12207.34037483 Element set: 0822 Inclination: 064.5567 deg RA of node: 178.8329 deg Eccentricity: 0.0080934 Arg of perigee: 241.0030 deg Mean anomaly: 118.2944 deg Mean motion: 14.72438309 rev/day Decay rate: 1.16e-06 rev/day^2 Epoch rev: 51558 Checksum: 300
Satellite: CO-55 Catalog number: 27844 Epoch time: 12207.57726648 Element set: 0426 Inclination: 098.7023 deg RA of node: 215.3975 deg Eccentricity: 0.0010510 Arg of perigee: 108.9560 deg Mean anomaly: 251.2742 deg Mean motion: 14.21045972 rev/day Decay rate: 9.9e-07 rev/day^2 Epoch rev: 47034 Checksum: 306
Satellite: CO-57 Catalog number: 27848 Epoch time: 12207.58765737 Element set: 0376 Inclination: 098.7118 deg RA of node: 214.7591 deg Eccentricity: 0.0010494 Arg of perigee: 113.0470 deg Mean anomaly: 247.1797 deg Mean motion: 14.20795256 rev/day Decay rate: 1.09e-06 rev/day^2 Epoch rev: 47028 Checksum: 333
Satellite: AO-51 Catalog number: 28375 Epoch time: 12207.47953152 Element set: 0326 Inclination: 098.1509 deg RA of node: 170.9804 deg Eccentricity: 0.0083125 Arg of perigee: 285.7675 deg Mean anomaly: 073.4357 deg Mean motion: 14.40969487 rev/day Decay rate: 1.70e-06 rev/day^2 Epoch rev: 42428 Checksum: 329
Satellite: CP3 Catalog number: 31129 Epoch time: 12207.57469515 Element set: 0222 Inclination: 097.8822 deg RA of node: 213.0921 deg Eccentricity: 0.0101188 Arg of perigee: 004.5589 deg Mean anomaly: 355.6495 deg Mean motion: 14.53135615 rev/day Decay rate: 3.85e-06 rev/day^2 Epoch rev: 27955 Checksum: 307
Satellite: CO-65 Catalog number: 32785 Epoch time: 12207.83764403 Element set: 369 Inclination: 097.7982 deg RA of node: 267.9726 deg Eccentricity: 0.0013341 Arg of perigee: 297.6242 deg Mean anomaly: 062.3622 deg Mean motion: 14.83067697 rev/day Decay rate: 1.68e-06 rev/day^2 Epoch rev: 22949 Checksum: 349
Satellite: PRISM Catalog number: 33493 Epoch time: 12208.90778103 Element set: 917 Inclination: 098.1761 deg RA of node: 350.4313 deg Eccentricity: 0.0019122 Arg of perigee: 164.4684 deg Mean anomaly: 195.7136 deg Mean motion: 14.84053337 rev/day Decay rate: 1.152e-05 rev/day^2 Epoch rev: 18964 Checksum: 301
Satellite: SOHLA-1 Catalog number: 33496 Epoch time: 12207.97171887 Element set: 0791 Inclination: 098.1083 deg RA of node: 319.4580 deg Eccentricity: 0.0005511 Arg of perigee: 279.9364 deg Mean anomaly: 080.1222 deg Mean motion: 14.70000862 rev/day Decay rate: 1.65e-06 rev/day^2 Epoch rev: 18794 Checksum: 308
Satellite: SO-67 Catalog number: 35870 Epoch time: 12208.90330547 Element set: 175 Inclination: 097.2299 deg RA of node: 243.2557 deg Eccentricity: 0.0003537 Arg of perigee: 057.5651 deg Mean anomaly: 024.8417 deg Mean motion: 15.24096472 rev/day Decay rate: 1.967e-05 rev/day^2 Epoch rev: 15866 Checksum: 330
Satellite: TISAT-1 Catalog number: 36799 Epoch time: 12208.77040684 Element set: 193 Inclination: 098.0601 deg RA of node: 285.3940 deg Eccentricity: 0.0015916 Arg of perigee: 048.5404 deg Mean anomaly: 311.7169 deg Mean motion: 14.82073416 rev/day Decay rate: 7.50e-06 rev/day^2 Epoch rev: 11035 Checksum: 295
Satellite: STUDSAT Catalog number: 36801 Epoch time: 12207.89686122 Element set: 0451 Inclination: 098.0675 deg RA of node: 285.4049 deg Eccentricity: 0.0013359 Arg of perigee: 037.9728 deg Mean anomaly: 322.2395 deg Mean motion: 14.84626445 rev/day Decay rate: 1.928e-05 rev/day^2 Epoch rev: 11026 Checksum: 314
Satellite: FO-69 Catalog number: 37227 Epoch time: 12179.46825757 Element set: 0219 Inclination: 071.9703 deg RA of node: 289.2712 deg Eccentricity: 0.0018108 Arg of perigee: 298.3339 deg Mean anomaly: 061.6016 deg Mean motion: 14.77092260 rev/day Decay rate: 1.66e-06 rev/day^2 Epoch rev: 03761 Checksum: 323
Satellite: FO-70 Catalog number: 37380 Epoch time: 12179.47554455 Element set: 0223 Inclination: 071.9743 deg RA of node: 289.8278 deg Eccentricity: 0.0018623 Arg of perigee: 295.0880 deg Mean anomaly: 064.8372 deg Mean motion: 14.76843679 rev/day Decay rate: 2.08e-06 rev/day^2 Epoch rev: 03750 Checksum: 341
Satellite: ALMASAT-1 Catalog number: 38078 Epoch time: 12208.56629556 Element set: 419 Inclination: 069.4856 deg RA of node: 227.9830 deg Eccentricity: 0.0754158 Arg of perigee: 199.4978 deg Mean anomaly: 157.5844 deg Mean motion: 14.10422492 rev/day Decay rate: 1.1891e-04 rev/day^2 Epoch rev: 2310 Checksum: 341
Satellite: XATCOBEO Catalog number: 38082 Epoch time: 12208.49366404 Element set: 427 Inclination: 069.4849 deg RA of node: 225.2324 deg Eccentricity: 0.0726006 Arg of perigee: 198.0895 deg Mean anomaly: 159.3082 deg Mean motion: 14.19036635 rev/day Decay rate: 2.6829e-04 rev/day^2 Epoch rev: 2316 Checksum: 316
/EX SB KEPS @ AMSAT $ORB12208.W Orbital Elements 12208.WEATHER
HR AMSAT ORBITAL ELEMENTS FOR WEATHER SATELLITES FROM WA5QGD FORT WORTH,TX July 26, 2012 Send SUBSCRIBE KEPS/UNSUBSCRIBE KEPS to majordomo@amsat.org only BID: ORB12208.W TO ALL RADIO AMATEURS BT
Satellite: NOAA-10 Catalog number: 16969 Epoch time: 12207.70947473 Element set: 0007 Inclination: 098.5786 deg RA of node: 236.0753 deg Eccentricity: 0.0013005 Arg of perigee: 119.9852 deg Mean anomaly: 240.2603 deg Mean motion: 14.27564794 rev/day Decay rate: -8.8e-07 rev/day^2 Epoch rev: 34536 Checksum: 320
